Lexington, NE

4:45 PM CST on December 03, 2016 (GMT -0600)
Kelly

Weather History for KLXN - June, 2013

Change the Weather History Date:

Saturday, June 8, 2013

  Actual Average Record
Temperature  
Mean Temperature 66 °F -  
Max Temperature 76 °F 76 °F 96 °F (2002)
Min Temperature 56 °F 53 °F 42 °F (2007)
Growing Degree Days 16 (Base 50)    
Moisture  
Dew Point 56 °F    
Average Humidity 72    
Maximum Humidity 86    
Minimum Humidity 44    
Precipitation  
Precipitation 0.02 in - - ()
Sea Level Pressure  
Sea Level Pressure 29.78 in    
Wind  
Wind Speed 13 mph (WSW)    
Max Wind Speed 23 mph    
Max Gust Speed 33 mph    
Visibility 10 miles    
Events Rain , Thunderstorm    
Averages and records for this station are not official NWS values.
T = Trace of Precipitation, MM = Missing Value Source: NWS Daily Summary

Daily Weather History Graph

Daily Weather History Graph

Search for Another Location

Airport or City:

Trip Planner

Search our weather history database for the weather conditions in past years. The results will help you decide how hot, cold, wet, or windy it might be!

Date:

Astronomy

Jun. 08, 2013 Rise Set
Actual Time 6:07 AM CDT 9:09 PM CDT
Civil Twilight 5:34 AM CDT 9:42 PM CDT
Nautical Twilight 4:52 AM CDT 10:24 PM CDT
Astronomical Twilight 4:02 AM CDT 11:14 PM CDT
Moon 6:17 AM CDT (6/8) 9:12 PM CDT (6/8)
Length of Visible Light 16h 07m
Length of Day
15h 01m
New Moon, 0% of the Moon is Illuminated
Jun 8
New Moon
Jun 16
First Quarter
Jun 23
Full
Jun 29
Last Quarter
Jul 8
New

Hourly Weather History & Observations

Time (CDT) Temp. Dew Point Humidity Pressure Visibility Wind Dir Wind Speed Gust Speed Precip Events Conditions
12:15 AM 66.0 °F 54.5 °F 66% 29.85 in 10.0 mi SSE 13.8 mph 23.0 mph N/A   Clear
12:35 AM 65.8 °F 54.5 °F 67% 29.84 in 10.0 mi SSE 16.1 mph - N/A   Clear
12:55 AM 65.7 °F 54.5 °F 67% 29.83 in 10.0 mi SSE 17.3 mph 24.2 mph N/A   Clear
1:15 AM 65.7 °F 54.5 °F 67% 29.83 in 10.0 mi SSE 15.0 mph 24.2 mph N/A   Clear
1:35 AM 65.3 °F 54.5 °F 68% 29.81 in 10.0 mi SSE 16.1 mph 20.7 mph N/A   Clear
1:55 AM 64.8 °F 54.5 °F 69% 29.80 in 10.0 mi SSE 15.0 mph 20.7 mph N/A   Clear
2:15 AM 64.8 °F 54.1 °F 68% 29.79 in 10.0 mi SSE 15.0 mph 24.2 mph N/A   Clear
2:35 AM 64.4 °F 54.5 °F 70% 29.79 in 10.0 mi SSE 13.8 mph - N/A   Clear
2:55 AM 64.0 °F 54.5 °F 71% 29.80 in 10.0 mi SSE 9.2 mph - N/A   Clear
3:15 AM 63.5 °F 54.5 °F 72% 29.80 in 10.0 mi South 10.4 mph - N/A   Clear
3:35 AM 63.1 °F 54.7 °F 74% 29.78 in 10.0 mi SSE 12.7 mph - N/A   Clear
3:55 AM 63.9 °F 55.0 °F 73% 29.76 in 10.0 mi South 16.1 mph - N/A   Clear
4:15 AM 63.7 °F 55.0 °F 73% 29.74 in 10.0 mi SSE 18.4 mph - N/A Thunderstorm Thunderstorm
4:35 AM 63.5 °F 55.4 °F 75% 29.75 in 10.0 mi South 11.5 mph - N/A   Scattered Clouds
4:55 AM 64.2 °F 55.6 °F 73% 29.76 in 10.0 mi SSE 10.4 mph 16.1 mph N/A   Scattered Clouds
5:15 AM 63.7 °F 55.4 °F 74% 29.75 in 10.0 mi SSE 3.5 mph - N/A   Scattered Clouds
5:35 AM 62.4 °F 55.4 °F 78% 29.73 in 10.0 mi SSE 11.5 mph 16.1 mph N/A   Clear
5:55 AM 62.6 °F 55.6 °F 78% 29.72 in 10.0 mi ESE 9.2 mph - N/A   Scattered Clouds
6:15 AM 62.1 °F 55.6 °F 79% 29.72 in 10.0 mi SE 9.2 mph - N/A   Scattered Clouds
6:35 AM 62.1 °F 55.6 °F 79% 29.74 in 10.0 mi East 6.9 mph - N/A   Mostly Cloudy
6:55 AM 62.4 °F 55.8 °F 79% 29.77 in 10.0 mi NE 12.7 mph - N/A   Overcast
7:15 AM 61.7 °F 56.3 °F 82% 29.77 in 10.0 mi ENE 10.4 mph - N/A   Light Drizzle
7:35 AM 61.7 °F 56.5 °F 83% 29.77 in 10.0 mi ENE 10.4 mph - N/A   Mostly Cloudy
7:55 AM 61.7 °F 57.0 °F 85% 29.76 in 10.0 mi ESE 12.7 mph - N/A   Light Drizzle
8:15 AM 61.7 °F 57.2 °F 85% 29.71 in 10.0 mi ESE 17.3 mph 24.2 mph N/A Rain Rain
8:35 AM 61.7 °F 57.2 °F 85% 29.68 in 10.0 mi ESE 19.6 mph 24.2 mph N/A   Light Drizzle
8:55 AM 62.1 °F 57.2 °F 84% 29.68 in 10.0 mi ESE 17.3 mph 24.2 mph N/A   Clear
9:15 AM 64.0 °F 57.7 °F 80% 29.68 in 10.0 mi SE 16.1 mph 25.3 mph N/A   Clear
9:35 AM 64.0 °F 57.9 °F 80% 29.69 in 10.0 mi SE 12.7 mph 20.7 mph N/A   Clear
9:55 AM 64.6 °F 57.7 °F 78% 29.73 in 10.0 mi SSW 8.1 mph - N/A   Mostly Cloudy
10:15 AM 66.7 °F 59.0 °F 76% 29.73 in 10.0 mi SSW 6.9 mph - N/A Rain Rain
10:35 AM 68.0 °F 58.5 °F 71% 29.73 in 10.0 mi SSW 8.1 mph - N/A   Scattered Clouds
10:55 AM 68.9 °F 58.1 °F 68% 29.71 in 10.0 mi South 9.2 mph - N/A   Scattered Clouds
11:15 AM 68.0 °F 57.9 °F 70% 29.73 in 10.0 mi SSW 10.4 mph - N/A   Scattered Clouds
11:35 AM 68.0 °F 57.7 °F 70% 29.73 in 10.0 mi SSW 8.1 mph - N/A Rain Light Rain
11:55 AM 69.6 °F 58.3 °F 67% 29.76 in 10.0 mi WSW 9.2 mph - N/A   Scattered Clouds
12:15 PM 70.2 °F 58.3 °F 66% 29.76 in 10.0 mi West 9.2 mph - N/A   Mostly Cloudy
12:35 PM 69.3 °F 58.3 °F 68% 29.76 in 10.0 mi West 5.8 mph - N/A   Mostly Cloudy
12:55 PM 69.1 °F 57.9 °F 68% 29.75 in 10.0 mi West 4.6 mph - N/A   Mostly Cloudy
1:15 PM 67.5 °F 60.3 °F 78% 29.76 in 10.0 mi WNW 8.1 mph - N/A Rain Light Rain
1:35 PM 66.2 °F 61.2 °F 84% 29.74 in 10.0 mi NW 6.9 mph - N/A Rain Rain
1:55 PM 67.1 °F 61.0 °F 81% 29.74 in 10.0 mi North 4.6 mph - N/A   Mostly Cloudy
2:15 PM 67.1 °F 60.8 °F 80% 29.76 in 10.0 mi NW 12.7 mph - N/A   Mostly Cloudy
2:35 PM 68.5 °F 59.7 °F 73% 29.77 in 10.0 mi NW 16.1 mph - N/A   Overcast
2:55 PM 71.1 °F 58.6 °F 65% 29.77 in 10.0 mi North 16.1 mph 20.7 mph N/A   Mostly Cloudy
3:15 PM 72.5 °F 58.6 °F 62% 29.78 in 10.0 mi NNW 21.9 mph 27.6 mph N/A   Mostly Cloudy
3:35 PM 72.5 °F 55.6 °F 55% 29.78 in 10.0 mi North 18.4 mph 25.3 mph N/A   Mostly Cloudy
3:55 PM 72.9 °F 55.4 °F 54% 29.78 in 10.0 mi NNW 15.0 mph 21.9 mph N/A   Scattered Clouds
4:15 PM 73.4 °F 55.6 °F 54% 29.78 in 10.0 mi NNW 12.7 mph 20.7 mph N/A   Clear
4:35 PM 75.0 °F 54.1 °F 48% 29.78 in 10.0 mi NW 11.5 mph 20.7 mph N/A Thunderstorm Clear
4:55 PM 75.7 °F 52.3 °F 44% 29.78 in 10.0 mi NNW 17.3 mph 25.3 mph N/A   Clear
5:15 PM 75.4 °F 53.6 °F 47% 29.78 in 10.0 mi NW 16.1 mph 21.9 mph N/A   Clear
5:35 PM 74.7 °F 53.8 °F 48% 29.76 in 10.0 mi NNW 18.4 mph 24.2 mph N/A   Scattered Clouds
5:55 PM 62.1 °F 53.4 °F 73% 29.80 in 7.0 mi NNW 23.0 mph 33.4 mph 0.01 in Rain Rain
6:15 PM 60.8 °F 55.8 °F 83% 29.78 in 10.0 mi NNW 8.1 mph - 0.01 in Rain Light Rain
6:35 PM 62.6 °F 56.7 °F 81% 29.78 in 10.0 mi West 9.2 mph - 0.01 in Rain Light Rain
6:55 PM 64.9 °F 56.7 °F 74% 29.78 in 10.0 mi WNW 10.4 mph - 0.01 in   Clear
7:15 PM 64.6 °F 56.8 °F 76% 29.80 in 10.0 mi NW 9.2 mph - N/A   Clear
7:35 PM 63.3 °F 57.2 °F 80% 29.81 in 10.0 mi NW 9.2 mph - N/A   Clear
7:55 PM 65.3 °F 57.6 °F 76% 29.83 in 10.0 mi NW 10.4 mph - N/A   Clear
8:15 PM 66.0 °F 57.2 °F 73% 29.83 in 10.0 mi NW 11.5 mph 17.3 mph N/A   Clear
8:35 PM 65.3 °F 55.6 °F 71% 29.83 in 10.0 mi NW 8.1 mph - N/A   Scattered Clouds
8:55 PM 64.9 °F 51.6 °F 62% 29.84 in 10.0 mi NW 15.0 mph - N/A   Scattered Clouds
9:15 PM 62.8 °F 51.6 °F 67% 29.84 in 10.0 mi NW 10.4 mph - N/A   Clear
9:35 PM 60.1 °F 52.2 °F 75% 29.85 in 10.0 mi WNW 6.9 mph - N/A   Clear
9:55 PM 59.2 °F 52.0 °F 77% 29.86 in 10.0 mi WNW 9.2 mph - N/A   Clear
10:15 PM 59.0 °F 52.7 °F 80% 29.87 in 10.0 mi WNW 10.4 mph - N/A   Clear
10:35 PM 59.0 °F 51.6 °F 76% 29.87 in 10.0 mi NW 8.1 mph - N/A   Clear
10:55 PM 59.9 °F 52.2 °F 76% 29.87 in 10.0 mi WNW 9.2 mph - N/A   Clear
11:15 PM 58.3 °F 52.3 °F 81% 29.88 in 10.0 mi West 8.1 mph - N/A   Clear
11:35 PM 56.3 °F 51.8 °F 85% 29.87 in 10.0 mi West 5.8 mph - N/A   Clear
11:55 PM 56.3 °F 52.2 °F 86% 29.87 in 10.0 mi West 9.2 mph - N/A   Clear